EDT,Max TemperatureF,Mean TemperatureF,Min TemperatureF,Max Dew PointF,MeanDew PointF,Min DewpointF,Max Humidity, Mean Humidity, Min Humidity, Max Sea Level PressureIn, Mean Sea Level PressureIn, Min Sea Level PressureIn, Max VisibilityMiles, Mean VisibilityMiles, Min VisibilityMiles, Max Wind SpeedMPH, Mean Wind SpeedMPH, Max Gust SpeedMPH,PrecipitationIn, CloudCover, Events, WindDirDegrees
2013-3-1,31,28,25,27,23,19,85,77,69,29.98,29.87,29.78,10,6,2,14,7,18,0.01,8,Snow,312
2013-3-2,27,25,23,20,18,16,81,75,68,29.99,29.90,29.84,10,5,1,14,7,17,0.01,8,Snow,310
2013-3-3,26,23,20,18,16,12,84,76,68,30.06,29.93,29.87,10,4,0,16,9,23,0.01,8,Snow,298
2013-3-4,35,27,18,16,12,8,84,63,41,30.18,30.10,29.96,10,9,4,13,6,23,T,4,Snow,295
2013-3-5,50,35,20,35,26,16,89,70,51,30.12,29.88,29.58,10,9,2,13,2,18,0.16,7,Rain-Snow,176
2013-3-6,35,32,29,31,28,25,92,85,78,30.15,29.80,29.58,10,4,0,32,6,40,0.34,8,Fog-Snow,330
2013-3-7,35,33,31,29,26,25,92,81,69,30.30,30.22,30.15,10,8,2,14,9,20,T,8,Snow,303
2013-3-8,34,30,26,27,23,19,75,68,61,30.44,30.34,30.21,10,9,2,14,6,20,0.02,8,Snow,334
2013-3-9,60,38,15,30,22,12,92,61,30,30.45,30.36,30.26,10,10,7,5,0,7,0.00,0,,-1
2013-3-10,67,47,26,33,27,24,92,56,20,30.27,30.19,30.06,10,10,7,18,5,29,0.00,1,,158
2013-3-11,60,57,54,44,32,24,66,47,28,30.06,29.92,29.79,10,10,10,26,12,39,T,3,,165
2013-3-12,56,45,34,47,33,24,89,77,64,30.07,29.91,29.76,10,9,2,18,7,25,0.27,8,Rain,277
2013-3-13,36,30,23,30,22,17,75,67,59,30.20,30.03,29.93,10,5,0,28,10,36,0.07,7,Fog-Rain-Snow,275
2013-3-14,38,30,22,18,15,12,77,57,37,30.32,30.20,30.12,10,7,2,18,9,30,T,6,Snow,278
2013-3-15,51,36,21,32,23,13,74,58,41,30.20,30.03,29.89,10,10,10,16,6,25,0.01,3,,248
2013-3-16,58,49,39,48,42,36,93,80,66,29.92,29.78,29.66,10,9,4,24,7,38,0.39,7,Rain,268
2013-3-17,44,38,32,39,32,28,96,86,76,30.16,30.06,29.90,8,3,0,10,2,13,0.33,8,Fog-Rain-Snow,337
2013-3-18,44,39,33,36,31,27,96,83,70,30.12,29.97,29.60,10,8,2,21,8,29,0.25,7,Rain,154
2013-3-19,47,40,33,43,26,3,93,58,22,30.04,29.85,29.72,10,9,2,32,13,49,0.08,5,Rain,266
2013-3-20,43,34,25,27,15,7,85,56,27,30.05,29.92,29.79,10,8,1,26,12,37,0.02,5,Snow,277
2013-3-21,26,22,17,17,11,6,74,62,50,30.01,29.85,29.78,10,5,1,21,10,28,0.02,8,Snow,291
2013-3-22,40,31,21,14,11,8,62,46,30,30.07,30.02,29.98,10,10,9,20,7,24,T,4,,255
2013-3-23,47,32,16,18,15,11,84,55,25,30.09,30.04,30.00,10,10,6,15,3,23,0.00,1,,297
2013-3-24,43,33,22,30,25,17,81,62,43,29.96,29.71,29.45,10,5,0,17,4,29,0.36,5,Fog-Rain-Snow,163
2013-3-25,33,32,30,29,26,24,92,81,69,29.79,29.54,29.44,10,3,0,15,7,21,0.24,8,Fog-Snow,233
2013-3-26,37,34,30,30,27,25,85,77,69,30.14,29.94,29.73,10,4,0,17,8,22,0.16,8,Fog-Snow,305
2013-3-27,35,32,29,28,25,23,85,75,64,30.24,30.14,30.06,10,5,0,16,8,22,0.05,8,Fog-Snow,286
2013-3-28,37,34,31,27,23,20,75,65,54,30.32,30.26,30.19,10,10,6,14,6,21,T,8,Snow,278
2013-3-29,48,40,31,28,24,20,85,60,34,30.33,30.28,30.22,10,10,10,13,2,17,T,7,,287
2013-3-30,54,41,28,28,26,21,92,60,28,30.29,30.20,30.09,10,9,6,14,2,20,0.00,3,,266
2013-3-31,50,41,31,46,38,26,92,82,71,30.08,29.87,29.77,10,7,2,22,5,32,0.44,7,Rain,261